Powrót do katalogu

STARLINK-11731

AktywnyŁącznośćVLEO
NORAD 64371·PAYLOAD·🇺🇸 United States

Wystrzelony Jun 13, 2025 z Cape Canaveral Space Force Station

Loading…

Następne Przeloty (najbliższe 24 godziny)

TLE

ŚwieżeSource: CelesTrak SupGP

Epoka: Sep 14, 2026, 23:02 UTC

1 64371C 25127B   26257.96020833  .00003513  00000+0  27264-4 0  2574
2 64371  43.0010  23.9598 0001777 268.2476 197.1770 15.70853097    12

Śledź STARLINK-11731 w czasie rzeczywistym z AllMySat

Download on the App Store